DELTA 1 DEB

Satellite information

Favourite Embed

Satellite Type and Status

DEBRISIN ORBIT

Key statistics

Satellite DELTA 1 DEB at a glance.

Uptime

17450

Days in orbit

Revolutions

≈ 14.2

Per day

Orbit

SSO

Sun Synchronous Orbit

Inclination

98.8

Latest

Satellite identification and parameters

Extended collection of information and parameters for DELTA 1 DEB.

Object identification

Identified? True

Debris? True

Object name: DELTA 1 DEB

International designator: 1978-026JP

Object number (NORAD): 37652

Object ID (CCSDS): 37652

Country: UNITED STATES OF AMERICA (US)

Current information (Y/N): Y

RCS size: SMALL

Orbital parameters

Period: 101.335 minutes

Inclination: 98.8106 deg

SMA: 7199.996 km

Apoapsis: 839.901 km

Periapsis: 803.82 km

RAAN: 298.0169 deg

Eccentricy: 0.0025056

Argument of periapsis: 256.3465 deg

Mean anomaly: 103.4922 deg

Mean motion: 14.21033777 rev/day

Mean motion (dot): 0.00001899 rev/day2

B* drag term: 0.00089298 1/REarth

Two-line elements (TLE)

Creation date: Dec. 9, 2025, 11:46 p.m.

Reference frame: TEME

Reference center: EARTH

Epoch: Dec. 9, 2025, 2:40 p.m. UTC

TLE line 0: 0 DELTA 1 DEB

TLE line 1: 1 37652U 78026JP 25343.61126730 .00001899 00000-0 89298-3 0 9995

TLE line 2: 2 37652 98.8106 298.0169 0025056 256.3465 103.4922 14.21033777115138

Live tracking on map

Real-time ground track for satellite DELTA 1 DEB.

In-orbit conjunctions

A list of the most updated potential collisions computed for object DELTA 1 DEB.

Target Orbit TCA Probability of collision Miss distance Type
FENGYUN 1C DEB SSO 2024-09-02 12:40:14 0.0005580825 57.0 (m) DEBRIS

Associated space launch

Earth observation satellite

DELTA 1 DEB was lifted into orbit during the mission ‘Delta 2910 | Landsat 3’, on board a Delta 2910 space rocket.

The launch took place on March 5, 1978, 5:54 p.m. from Space Launch Complex 2W.

For more information about the launch, click the button.

Launch to space Delta 2910 | Landsat 3
Delta 2910 | Landsat 3

Agency: N/A

Status: Launch Successful

Launch date: March 5, 1978, 5:54 p.m. UTC

Rocket: Delta 2910

Launch pad: Space Launch Complex 2W

Location: Vandenberg SFB, CA, USA

...

Latest news about this satellite

There are no fresh news available about this satellite. Check back as we update our databases every day.


Newsletter sign-up

Weekly statistics, charts and insights to help you stay on top of the space industry.